Regional Weather Roundup
Issued by NWS

Home | Current Version | Previous Version | Text Only | Print | Product List | Glossary Off
Versions: 1 2 3 4 5 6 7 8 9 10 11 12 13 14 15 16 17 18 19 20 21 22 23 24 25 26 27 28 29 30 31 32 33 34 35 36 37 38 39 40 41 42 43 44 45 46 47 48 49 50

179
ASUS45 KSLC 152310
RWRUT

UTAH REGIONAL WEATHER ROUNDUP
NATIONAL WEATHER SERVICE SALT LAKE CITY UT
400 PM MST MON JAN 15 2018

UTZ001>011-023>025-160000-

NORTHERN UTAH

CITY           SKY/WX    TMP DP  RH WIND       PRES   REMARKS
BRIGHAM CITY   SUNNY     45  30  55 CALM      30.30S
HILL AFB       SUNNY     44  28  53 CALM      30.28S
LOGAN          SUNNY     43  28  55 W3        30.31R
OGDEN          SUNNY     44  30  57 NW5       30.28S
SALT LAKE CITY PTSUNNY   46  31  55 W5        30.29S
TOOELE VALLEY  SUNNY     39  32  75 N3        30.30F
WENDOVER       MOSUNNY   42  28  57 NE8       30.30R
HEBER CITY       N/A     46  27  46 SW3       30.24F
WEST JORDAN    SUNNY     43  32  65 CALM      30.29S

$$

UTZ011>015-024>027-160000-

CENTRAL/NORTHEAST UTAH

CITY           SKY/WX    TMP DP  RH WIND       PRES   REMARKS
PROVO AIRPORT  MOSUNNY   42  27  55 CALM      30.29S
MOAB/CANYONLAN SUNNY     48  30  49 NW7       30.22S
DELTA          SUNNY     45  30  57 CALM      30.26S
PRICE          SUNNY     47  25  42 NE12      30.24R
ROOSEVELT      MOSUNNY   41  23  48 SE5       30.37R
VERNAL         CLOUDY    40  20  44 E8        30.36R WCI  34

$$

UTZ013>016-019>022-027-160000-

SOUTHERN UTAH

CITY           SKY/WX    TMP DP  RH WIND       PRES   REMARKS
BRYCE CANYON   SUNNY     47  27  45 CALM      30.24S
CEDAR CITY     SUNNY     50  29  44 VRB5      30.21S
MILFORD        SUNNY     49  30  48 N13       30.23F
ST GEORGE      CLEAR     59  33  37 CALM      30.14F
HANKSVILLE     MOSUNNY   52  25  35 E6        30.26R
BLANDING         N/A     48  24  39 S3        30.26R

$$

REGIONAL REPORTS     COLORADO/ARIZONA

CITY           SKY/WX    TMP DP  RH WIND       PRES   REMARKS
CRAIG, CO      CLEAR     33  11  39 N13G20    30.35S WCI  24
GRAND JUNCTION SUNNY     47  23  38 NE10      30.27R
RIFLE, CO      SUNNY     42  23  46 NW18G28   30.27R
MONTROSE, CO   SUNNY     43  22  43 CALM      30.26R
CORTEZ, CO     SUNNY     44  25  47 W10       30.17R
COLORADO CITY    N/A     59  32  36 CALM      30.19S
PAGE, AZ       SUNNY     52  30  43 CALM      30.19S
GRAND CANYON   SUNNY     55  25  31 CALM      30.21R
KINGMAN, AZ    SUNNY     64  31  28 N3        30.12S
FLAGSTAFF, AZ  SUNNY     55  21  26 CALM      30.19S

$$

REGIONAL REPORTS    NEVADA/IDAHO/WYOMING

CITY           SKY/WX    TMP DP  RH WIND       PRES   REMARKS
LAS VEGAS, NV  MOSUNNY   67  34  29 NE3       30.10F
ELY, NY        SUNNY     50  25  37 N10       30.23S
ELKO, NV       PTSUNNY   49  25  39 NE3       30.23S
POCATELLO, ID  SUNNY     43  29  57 NE9       30.33R
BURLEY, ID     SUNNY     45  32  60 E9G23     30.27R
FORT BRIDGER,    N/A     35  22  58 E12       30.36S WCI  27
EVANSTON, WY   SUNNY     36  24  62 E13       30.31R WCI  27
ROCK SPRINGS,  SUNNY     28  14  55 E13       30.38R WCI  17

$$




USA.gov is the U.S. government's official web portal to all federal, state and local government web resources and services.